[[{"header":{"parameterUnit":"m.s-1","parameterCategory":1,"la1":30.2992,"la2":30.254,"lo1":-89.0895,"lo2":-89.0443,"dy":0.0025,"dx":0.0025,"nx":19,"ny":19,"refTime":"2026-03-08T21:00:00:Z","depth":0,"parameterNumber":2,"parameterNumberName":"U-component_of_WINDS"},"data":[0,0,0,-0.2866,-0.2865,-0.2802,-0.2802,-0.2735,-0.2734,0,0,0,0,0,0,0,0,0,0,0,-0.2893,-0.2893,-0.2866,-0.2865,-0.2802,-0.2802,-0.2735,-0.2734,0,0,0,0,0,0,0,0,0,0,0,-0.2893,-0.2893,-0.2893,-0.2865,-0.2802,-0.2802,-0.2735,-0.2778,0,0,0,0,0,0,0,0,0,0,-0.2836,-0.2869,-0.2893,-0.2893,-0.2864,-0.2802,-0.2802,-0.2779,-0.2775,-0.2769,0,-0.2766,0,-0.2749,-0.2731,-0.2731,0,0,0,-0.2859,-0.2873,-0.2849,-0.2893,-0.2864,-0.2803,-0.2829,-0.2777,-0.2772,-0.2763,-0.2765,-0.2762,-0.2748,-0.273,-0.273,-0.2719,-0.272,0,0,-0.2862,-0.2886,-0.2852,-0.2846,-0.2857,-0.2831,-0.2827,-0.2773,-0.2777,-0.2765,-0.276,-0.2747,-0.273,-0.273,-0.2719,-0.2719,0,0,0,-0.2876,-0.2889,-0.2865,-0.2849,-0.2837,-0.2829,-0.2825,-0.2779,-0.277,-0.276,-0.2746,-0.273,-0.2729,-0.2719,-0.2719,-0.2756,0,0,0,-0.2878,-0.2897,-0.2867,-0.2881,-0.2838,-0.2807,-0.2832,-0.2774,-0.2767,-0.2747,-0.273,-0.2729,-0.2718,-0.2719,-0.2755,-0.277,0,0,0,-0.2894,-0.2899,-0.2892,-0.2883,-0.2857,-0.2808,-0.2795,-0.2771,-0.2759,-0.273,-0.2728,-0.2718,-0.2719,-0.2753,-0.2767,-0.2775,0,0,0,-0.2918,-0.2925,-0.2893,-0.2896,-0.2857,-0.2831,-0.2795,-0.2773,-0.2753,-0.2729,-0.2719,-0.2719,-0.2753,-0.2766,-0.2774,-0.2788,-0.2795,0,0,-0.294,-0.2928,-0.2928,-0.2898,-0.2884,-0.2839,-0.2829,-0.2787,-0.2762,-0.2735,-0.2734,-0.2755,-0.2767,-0.2775,-0.2827,-0.2833,0,0,0,-0.2943,-0.2943,-0.2934,-0.2916,-0.2886,-0.2861,-0.2818,-0.2803,-0.2779,-0.2753,-0.2759,-0.2765,-0.2769,-0.2774,-0.2779,-0.2782,-0.2722,-0.2722,-0.2722,-0.3008,-0.2976,-0.2974,-0.2936,-0.2919,-0.2876,-0.286,-0.2832,-0.2804,-0.2806,-0.2798,-0.2833,-0.2841,-0.2844,-0.2847,-0.2801,-0.2801,-0.2802,-0.2802,-0.3038,-0.3034,-0.2998,-0.2983,-0.295,-0.2936,-0.2895,-0.2876,-0.2859,-0.2836,-0.2838,-0.2817,-0.2852,-0.2853,-0.2804,-0.2804,-0.2803,-0.2803,-0.2803,-0.3078,-0.3071,-0.3053,-0.3026,-0.3009,-0.2969,-0.2955,-0.2924,-0.2895,-0.2897,-0.2887,-0.2886,-0.2883,-0.2894,-0.2894,-0.2894,-0.2894,-0.2895,-0.2895,-0.3128,-0.3106,-0.3099,-0.3068,-0.3054,-0.3031,-0.2989,-0.2974,-0.2949,-0.2928,-0.2928,-0.2901,-0.2861,-0.2853,-0.2896,-0.2896,-0.2896,-0.2896,-0.2896,-0.3172,-0.3158,-0.3146,-0.3133,-0.3094,-0.308,-0.3042,-0.3014,-0.2997,-0.2991,-0.2964,-0.2939,-0.2925,-0.292,-0.2913,-0.297,-0.297,-0.297,-0.297,-0.3208,-0.3198,-0.318,-0.316,-0.3137,-0.3101,-0.309,-0.3058,-0.3021,-0.3009,-0.2996,-0.2984,-0.298,-0.2968,-0.2962,-0.2955,-0.3021,-0.3021,-0.3021,-0.3234,-0.3221,-0.3217,-0.3183,-0.3151,-0.3125,-0.3114,-0.3092,-0.3047,-0.3023,-0.2999,-0.2997,-0.2976,-0.2971,-0.2947,-0.2939,-0.2926,0,0]},{"header":{"parameterUnit":"m.s-1","parameterCategory":1,"la1":30.2992,"la2":30.254,"lo1":-89.0895,"lo2":-89.0443,"dy":0.0025,"dx":0.0025,"nx":19,"ny":19,"refTime":"2026-03-08T21:00:00:Z","depth":0,"parameterNumber":3,"parameterNumberName":"V-component_of_WINDS"},"data":[0,0,0,0.8006,0.8006,0.7967,0.7967,0.7927,0.7927,0,0,0,0,0,0,0,0,0,0,0,0.8024,0.8024,0.8006,0.8006,0.7967,0.7967,0.7927,0.7927,0,0,0,0,0,0,0,0,0,0,0,0.8024,0.8024,0.8024,0.8005,0.7967,0.7967,0.7927,0.7952,0,0,0,0,0,0,0,0,0,0,0.7988,0.8012,0.8024,0.8024,0.8005,0.7967,0.7967,0.7954,0.7951,0.7949,0,0.795,0,0.7938,0.7925,0.7925,0,0,0,0.8,0.8014,0.7998,0.8024,0.8005,0.7967,0.7983,0.7952,0.7949,0.7945,0.7949,0.7947,0.7937,0.7925,0.7924,0.7934,0.7934,0,0,0.8002,0.8021,0.8,0.7996,0.8004,0.7984,0.7982,0.795,0.7955,0.7949,0.7946,0.7936,0.7924,0.7924,0.7934,0.7934,0,0,0,0.8012,0.8022,0.8007,0.7998,0.7991,0.7983,0.798,0.7956,0.7949,0.7946,0.7936,0.7924,0.7924,0.7933,0.7934,0.7968,0,0,0,0.8013,0.8028,0.8008,0.8019,0.7991,0.7973,0.7988,0.7952,0.7948,0.7936,0.7924,0.7924,0.7933,0.7933,0.7966,0.7981,0,0,0,0.8024,0.8029,0.8026,0.802,0.8004,0.7973,0.7965,0.795,0.7942,0.7925,0.7923,0.7933,0.7933,0.7965,0.7978,0.799,0,0,0,0.8042,0.8056,0.8027,0.8039,0.8005,0.7995,0.7965,0.7956,0.7945,0.7924,0.7933,0.7934,0.7964,0.7977,0.7989,0.8004,0.8012,0,0,0.8069,0.806,0.8065,0.8038,0.8039,0.7999,0.8004,0.7975,0.7956,0.7942,0.7942,0.7967,0.7978,0.799,0.8048,0.8055,0,0,0,0.808,0.8084,0.808,0.8072,0.8052,0.8036,0.8005,0.7995,0.7982,0.7953,0.7973,0.7979,0.7985,0.7992,0.7997,0.8002,0.7937,0.7937,0.7937,0.8146,0.8122,0.8129,0.8101,0.8093,0.8062,0.8054,0.8034,0.801,0.8016,0.8012,0.805,0.8059,0.8063,0.8068,0.8017,0.8017,0.8017,0.8017,0.8185,0.8188,0.8158,0.8155,0.8129,0.8126,0.8097,0.8081,0.8073,0.8051,0.8055,0.8033,0.8071,0.8074,0.8019,0.8019,0.8019,0.8019,0.8018,0.8226,0.8223,0.8212,0.8198,0.819,0.816,0.8155,0.8131,0.8108,0.8112,0.8106,0.8106,0.8103,0.8111,0.8111,0.8111,0.8111,0.8111,0.8112,0.8274,0.8259,0.8259,0.824,0.8232,0.8219,0.8189,0.818,0.8164,0.8147,0.8146,0.8123,0.8079,0.8069,0.8114,0.8113,0.8113,0.8113,0.8113,0.8324,0.8309,0.8309,0.8301,0.8278,0.8272,0.8242,0.8226,0.8215,0.8214,0.819,0.8161,0.8148,0.8144,0.8135,0.8194,0.8194,0.8194,0.8194,0.8359,0.8351,0.8347,0.8336,0.8323,0.8296,0.8297,0.8274,0.8247,0.8239,0.8226,0.8213,0.8209,0.8199,0.8193,0.8185,0.8256,0.8256,0.8256,0.8389,0.8379,0.8385,0.836,0.834,0.8323,0.8324,0.8312,0.8278,0.8258,0.8232,0.8229,0.8207,0.8201,0.8181,0.8172,0.8157,0,0]}]]